FW0532 Weather Reports


Display with metric or nautical units.
time (UTC)temp
F
wind
direction
speed
MPH
gust
MPH
rain 1hr
in
rain 24hr
in
rain mn
in
humidity
%
barometer
mb
20260506082305 44 64 0.0 6.0 0.03 1.50 0.32 92 1006.2
20260506081305 44 31 4.0 6.0 0.03 1.51 0.32 91 1006.7
20260506080805 44 27 2.0 5.0 0.03 1.51 0.32 91 1007.2
20260506073303 44 9 2.0 7.0 0.01 1.49 0.30 91 1006.8
20260506072804 44 9 1.0 6.0 0.02 1.49 0.30 91 1006.7
20260506072305 44 15 2.0 6.0 0.01 1.48 0.29 91 1006.7
20260506071804 44 348 0.0 9.0 0.01 1.48 0.29 91 1006.6
20260506071303 44 333 5.0 9.0 0.02 1.48 0.29 91 1006.8
20260506070803 44 33 1.0 5.0 0.02 1.48 0.29 91 1006.6
20260506070303 44 17 2.0 7.0 0.03 1.48 0.29 91 1006.5
20260506062332 45 355 2.0 10.0 0.07 1.47 0.28 93 1007.1
20260506061831 45 9 5.0 10.0 0.08 1.47 0.28 93 1007.3
20260506061331 45 360 5.0 10.0 0.09 1.46 0.27 94 1007.4
20260506060831 46 36 0.0 10.0 0.10 1.46 0.27 94 1007.0
20260506044829 47 18 9.0 12.0 0.19 1.29 0.10 94 1007.2
20260506044328 47 5 5.0 11.0 0.20 1.27 0.08 94 1007.2
20260506043328 47 5 3.0 5.0 0.19 1.22 0.03 94 1006.7
20260506042828 47 40 0.0 5.0 0.19 1.22 0.03 94 1006.3
20260506042328 47 80 1.0 6.0 0.18 1.21 0.02 94 1006.1
20260506041828 47 78 0.0 10.0 0.18 1.21 0.02 94 1006.2
20260506041328 47 40 3.0 10.0 0.18 1.21 0.02 94 1006.2
20260506040827 47 49 4.0 10.0 0.17 1.20 0.01 94 1006.2
20260506040327 47 41 10.0 10.0 0.16 1.19 0.00 94 1006.6
20260506035827 47 64 6.0 9.0 0.14 1.17 1.17 94 1006.7
20260506034326 47 351 4.0 9.0 0.04 1.07 1.07 94 1007.1
20260506033327 48 22 5.0 11.0 0.02 1.03 1.03 94 1006.6
20260506032826 48 30 0.0 6.0 0.02 1.03 1.03 94 1006.5
20260506031326 48 35 3.0 10.0 0.04 1.03 1.03 94 1006.5
20260506030825 48 331 10.0 11.0 0.04 1.03 1.03 94 1006.2
20260506030326 48 19 4.0 11.0 0.05 1.03 1.03 94 1006.2
20260506025825 48 40 3.0 7.0 0.06 1.03 1.03 94 1006.2
20260506025325 48 24 3.0 6.0 0.07 1.03 1.03 94 1006.4
20260506024825 48 42 0.0 6.0 0.08 1.03 1.03 94 1006.2
20260506024325 48 40 4.0 10.0 0.09 1.03 1.03 94 1006.5
20260506023825 48 71 0.0 10.0 0.08 1.02 1.02 94 1006.5
20260506022825 48 56 5.0 7.0 0.07 1.01 1.01 94 1006.7
20260506022324 48 26 1.0 7.0 0.07 1.00 1.00 94 1006.8
20260506021825 48 24 0.0 5.0 0.07 0.99 0.99 93 1006.9
20260506021323 48 88 1.0 6.0 0.08 0.99 0.99 94 1006.9
20260506020823 48 67 1.0 6.0 0.09 0.99 0.99 93 1006.9
20260506020323 49 65 3.0 4.0 0.09 0.98 0.98 93 1006.9
20260506015823 49 111 0.0 9.0 0.08 0.97 0.97 93 1006.8
20260506015323 49 355 2.0 9.0 0.08 0.96 0.96 93 1006.7
20260506014823 49 19 2.0 5.0 0.09 0.95 0.95 93 1006.7
20260506014323 49 47 0.0 3.0 0.10 0.94 0.94 93 1006.6
20260506013823 49 57 0.0 6.0 0.11 0.94 0.94 93 1006.3
20260506013322 49 17 0.0 6.0 0.12 0.94 0.94 93 1006.3
20260506012823 49 34 1.0 7.0 0.13 0.94 0.94 93 1006.2
20260506011822 49 26 2.0 5.0 0.14 0.92 0.92 93 1006.3
20260506011322 49 9 2.0 7.0 0.15 0.91 0.91 93 1006.3
20260506010822 50 24 2.0 7.0 0.15 0.90 0.90 93 1006.6
20260506010321 50 5 2.0 7.0 0.16 0.89 0.89 93 1006.8
20260506005821 50 9 4.0 5.0 0.17 0.89 0.89 93 1006.8
20260506005321 50 21 2.0 7.0 0.18 0.88 0.88 93 1006.8
20260506004821 50 313 1.0 7.0 0.18 0.86 0.86 93 1006.6
20260506004321 50 319 0.0 5.0 0.17 0.84 0.84 93 1006.6
20260506003821 50 65 0.0 10.0 0.18 0.83 0.83 92 1006.5
20260506002820 50 36 0.0 7.0 0.19 0.81 0.81 92 1006.4
20260506001320 51 355 3.0 6.0 0.32 0.76 0.76 92 1005.9
20260506000820 51 24 3.0 7.0 0.35 0.75 0.75 92 1005.9
20260506000320 51 347 1.0 10.0 0.35 0.73 0.73 92 1005.7
20260505235820 51 333 4.0 10.0 0.35 0.72 0.72 92 1005.6
20260505235319 51 42 4.0 12.0 0.34 0.70 0.70 92 1005.6
20260505234820 51 322 3.0 12.0 0.32 0.68 0.68 92 1005.5
20260505234319 52 11 3.0 12.0 0.31 0.67 0.67 91 1005.4
20260505233819 52 355 4.0 13.0 0.29 0.65 0.65 91 1005.4
20260505233319 53 10 4.0 13.0 0.28 0.64 0.64 91 1005.5
20260505232819 53 355 6.0 15.0 0.26 0.62 0.62 90 1005.3
20260505232319 54 20 11.0 15.0 0.23 0.59 0.59 89 1005.3
20260505231819 57 355 5.0 15.0 0.16 0.52 0.52 87 1005.2
20260505225318 60 200 5.0 7.0 0.00 0.36 0.36 91 1005.1
20260505224818 60 204 2.0 7.0 0.00 0.36 0.36 91 1005.1
20260505224318 60 208 3.0 7.0 0.00 0.36 0.36 91 1005.1
20260505223817 60 215 4.0 9.0 0.00 0.36 0.36 91 1005.2
20260505223317 60 188 6.0 9.0 0.00 0.36 0.36 91 1005.3
20260505222817 60 231 5.0 9.0 0.00 0.36 0.36 91 1005.3
20260505222317 60 183 2.0 7.0 0.00 0.36 0.36 91 1005.4
20260505221816 60 170 3.0 7.0 0.00 0.36 0.36 90 1005.3
20260505221316 60 207 3.0 9.0 0.00 0.36 0.36 90 1005.3
20260505220816 60 222 2.0 10.0 0.00 0.36 0.36 90 1005.5
20260505220316 60 221 9.0 10.0 0.00 0.36 0.36 90 1005.5
20260505215816 60 225 4.0 10.0 0.00 0.36 0.36 90 1005.6
20260505215316 60 202 5.0 10.0 0.00 0.36 0.36 90 1005.6
20260505213816 60 200 4.0 7.0 0.01 0.36 0.36 90 1005.5
20260505213315 60 195 3.0 8.0 0.01 0.36 0.36 90 1005.5
20260505212815 60 203 5.0 10.0 0.01 0.36 0.36 90 1005.4
20260505212315 60 207 4.0 11.0 0.02 0.36 0.36 90 1005.3
20260505211815 60 204 3.0 11.0 0.02 0.36 0.36 90 1005.4
20260505211315 60 203 7.0 11.0 0.02 0.36 0.36 90 1005.4
20260505210814 60 198 4.0 12.0 0.02 0.36 0.36 90 1005.3
20260505205814 60 311 3.0 9.0 0.03 0.36 0.36 90 1005.3
20260505205314 60 219 7.0 9.0 0.04 0.36 0.36 90 1005.5
20260505204814 60 242 4.0 10.0 0.04 0.35 0.35 90 1005.5
20260505203814 60 207 5.0 10.0 0.09 0.35 0.35 89 1005.5
20260505202813 60 180 2.0 13.0 0.10 0.35 0.35 89 1005.7
20260505202313 60 236 10.0 13.0 0.09 0.34 0.34 89 1005.7
20260505201813 60 225 3.0 13.0 0.09 0.34 0.34 89 1005.8
20260505200813 60 242 3.0 11.0 0.09 0.34 0.34 89 1005.7
20260505200312 60 206 4.0 13.0 0.09 0.34 0.34 88 1005.6
20260505195812 60 288 4.0 14.0 0.08 0.33 0.33 88 1005.9
20260505195312 60 239 4.0 14.0 0.07 0.32 0.32 88 1006.1
20260505194812 61 257 2.0 12.0 0.06 0.31 0.31 87 1006.1
20260505194312 61 187 3.0 14.0 0.03 0.28 0.28 86 1006.1
20260505193811 62 232 5.0 14.0 0.01 0.26 0.26 83 1006.2
20260505193311 62 218 4.0 10.0 0.00 0.25 0.25 81 1006.1
20260505192811 63 198 4.0 10.0 0.00 0.25 0.25 80 1006.0
20260505192311 63 315 4.0 10.0 0.00 0.25 0.25 79 1006.1
20260505191811 63 194 4.0 17.0 0.00 0.25 0.25 78 1006.1
20260505191311 64 173 7.0 17.0 0.00 0.25 0.25 76 1006.2
20260505190310 64 190 9.0 17.0 0.00 0.25 0.25 75 1006.2
20260505185810 64 171 6.0 15.0 0.00 0.25 0.25 75 1006.3
20260505185310 65 188 8.0 14.0 0.00 0.25 0.25 76 1006.2
20260505184811 64 247 3.0 14.0 0.00 0.25 0.25 75 1006.2
20260505184310 65 217 12.0 16.0 0.00 0.25 0.25 75 1006.4
20260505183809 65 193 9.0 17.0 0.00 0.25 0.25 75 1006.5
20260505183310 65 275 4.0 17.0 0.00 0.25 0.25 74 1006.4
20260505182809 65 218 4.0 18.0 0.00 0.25 0.25 74 1006.3
20260505182309 65 248 3.0 18.0 0.00 0.25 0.25 73 1006.4
20260505181309 65 208 12.0 18.0 0.00 0.25 0.25 74 1006.6
20260505180809 65 196 7.0 21.0 0.00 0.25 0.25 74 1006.5
20260505180309 65 236 6.0 21.0 0.00 0.25 0.25 75 1006.4
20260505175808 65 216 10.0 16.0 0.00 0.25 0.25 75 1006.5
20260505175309 64 165 10.0 17.0 0.00 0.25 0.25 77 1006.4
20260505174809 64 217 12.0 17.0 0.00 0.25 0.25 78 1006.4
20260505174308 64 265 6.0 19.0 0.00 0.25 0.25 77 1006.3
20260505173308 65 192 17.0 19.0 0.00 0.25 0.25 74 1006.5
20260505172808 66 212 10.0 14.0 0.00 0.25 0.25 74 1006.5
20260505172307 66 215 5.0 13.0 0.00 0.25 0.25 74 1006.5
20260505171807 66 246 5.0 13.0 0.00 0.25 0.25 73 1006.6
20260505171307 67 257 5.0 10.0 0.00 0.25 0.25 73 1006.7
20260505170807 66 238 4.0 11.0 0.00 0.25 0.25 73 1006.6
20260505170307 66 266 1.0 11.0 0.00 0.25 0.25 74 1006.7
20260505165807 66 213 4.0 12.0 0.00 0.25 0.25 74 1006.6
20260505165306 66 279 2.0 13.0 0.00 0.25 0.25 74 1006.8
20260505164806 66 273 7.0 14.0 0.00 0.25 0.25 73 1006.8
20260505163806 66 184 5.0 15.0 0.00 0.25 0.25 72 1007.0
20260505163306 66 167 12.0 13.0 0.00 0.25 0.25 73 1007.0
20260505162806 66 226 4.0 16.0 0.00 0.25 0.25 72 1007.1
20260505162307 66 302 5.0 16.0 0.00 0.25 0.25 73 1007.0
20260505161305 66 205 10.0 18.0 0.00 0.25 0.25 72 1007.0
20260505160305 66 217 13.0 15.0 0.00 0.25 0.25 72 1007.0
20260505153304 66 234 9.0 17.0 0.00 0.25 0.25 71 1007.0
20260505152305 66 272 5.0 17.0 0.00 0.25 0.25 74 1006.9
20260505151803 66 288 4.0 17.0 0.00 0.25 0.25 73 1006.9
20260505150803 66 179 12.0 16.0 0.00 0.25 0.25 71 1006.8
20260505150303 66 198 10.0 14.0 0.00 0.25 0.25 72 1006.7
20260505124829 59 204 12.0 14.0 0.00 0.25 0.25 84 1005.5
20260505124329 59 213 9.0 14.0 0.00 0.25 0.25 85 1005.4
20260505123329 58 215 10.0 13.0 0.00 0.25 0.25 85 1005.6
20260505122328 57 195 10.0 12.0 0.00 0.25 0.25 86 1005.5
20260505121828 57 198 4.0 13.0 0.00 0.25 0.25 86 1005.5
20260505121328 57 189 7.0 13.0 0.00 0.25 0.25 86 1005.5
20260505120828 57 216 7.0 13.0 0.00 0.25 0.25 86 1005.6
20260505120328 57 194 9.0 12.0 0.00 0.25 0.25 86 1005.5
20260505115828 57 281 3.0 10.0 0.00 0.25 0.25 87 1005.6
20260505115328 57 219 5.0 10.0 0.00 0.25 0.25 87 1005.6
20260505114827 57 221 5.0 9.0 0.00 0.25 0.25 87 1005.4
20260505114327 56 271 2.0 10.0 0.00 0.25 0.25 87 1005.5
20260505113827 56 267 3.0 10.0 0.00 0.25 0.25 87 1005.3
20260505113327 56 254 3.0 13.0 0.00 0.25 0.25 87 1005.4
20260505112827 56 266 4.0 13.0 0.00 0.25 0.25 87 1005.3
20260505112327 56 288 3.0 11.0 0.01 0.25 0.25 87 1005.4
20260505111826 56 259 1.0 10.0 0.01 0.25 0.25 87 1005.2
20260505111326 56 181 4.0 11.0 0.01 0.25 0.25 87 1004.9
20260505110826 56 167 2.0 11.0 0.01 0.25 0.25 87 1004.3
20260505110326 56 275 4.0 11.0 0.01 0.25 0.25 87 1004.0
20260505101825 56 157 11.0 14.0 0.03 0.24 0.24 88 1003.9
20260505101324 56 191 7.0 17.0 0.03 0.24 0.24 87 1004.2
20260505100324 56 229 7.0 18.0 0.05 0.24 0.24 88 1004.0
20260505095824 56 171 8.0 17.0 0.07 0.24 0.24 89 1003.9
20260505095324 56 193 4.0 16.0 0.09 0.24 0.24 89 1003.8
20260505094824 56 224 5.0 12.0 0.12 0.24 0.24 89 1004.3
20260505093823 56 163 4.0 16.0 0.16 0.23 0.23 90 1004.6
20260505093323 56 196 10.0 12.0 0.17 0.23 0.23 91 1005.6
20260505092823 56 148 4.0 8.0 0.18 0.22 0.22 91 1006.0
20260505091322 56 191 4.0 10.0 0.21 0.21 0.21 91 1006.1
20260505090822 56 243 3.0 10.0 0.19 0.19 0.19 91 1006.2
20260505090322 56 235 0.0 3.0 0.19 0.19 0.19 91 1006.0
20260505085822 56 277 1.0 2.0 0.17 0.17 0.17 91 1006.2
20260505085322 56 277 0.0 3.0 0.15 0.15 0.15 91 1006.2
20260505084821 56 290 0.0 3.0 0.12 0.12 0.12 91 1006.0
20260505084321 56 355 0.0 2.0 0.08 0.08 0.08 90 1005.9
20260505083822 56 344 1.0 2.0 0.07 0.07 0.07 89 1006.0
20260505083321 56 184 0.0 2.0 0.06 0.06 0.06 89 1005.7
20260505082821 57 217 0.0 2.0 0.04 0.04 0.04 88 1005.8